Погода в Пиблсе

Великобритания     55°39′10″N   3°11′21″W
темп.,
°C
ветер,
м/с
пор.,
м/с
влажн.,
%
обл.,
%
осадки,
мм/ч
давл.,
гПа
погр.,
м
15 апреля, чт
чт1501:00+1ююв118513 0.0 103510
04:000юв11807 0.0 103510
07:00+1юв11747 0.0 103510
10:00+7в124710 0.0 1035603
13:00+10в22405 0.0 10341497
16:00+10вюв32405 0.0 10331631
19:00+8вюв355949 0.0 1032178
22:00+2ю23825 0.0 103334
16 апреля, пт
пт1601:00+1ю22805 0.0 103314
04:000ююв22795 0.0 103216
07:00+1ю22810 0.0 103241
10:00+7юз34550 0.0 1031848
13:00+10юз344697 0.0 10301473
16:00+10юз4450100 0.0 10291537
19:00+8юз3666100 0.0 1030339
22:00+4ююз2284100 0.0 103123
17 апреля, сб
сб1701:00+3ю2286100 0.0 103032
04:00+2ю228198 0.0 103041
07:00+2ю238176 0.0 103061
10:00+8ююз3464100 0.0 1028727
13:00+10ююз455291 0.0 10261377
16:00+10ююз565181 0.0 10251391
19:00+8ююз4964100 0.0 1024926
22:00+6ююз31068100 0.0 1024775
18 апреля, вс
вс1801:00+5ю41383100 0.3 1023736
04:00+5ююз51479100 0.0 1021728
07:00+5ююз41389100 0.0 1020673
10:00+6ююз41193100 0.1 1021606
13:00+6ююз31095100 0.1 1021563
16:00+7ююз3995100 0.0 1020526
19:00+6ю2797100 0.0 1021441
22:00+6ю2698100 0.0 1021391
19 апреля, пн
пн1901:00+6ю31097100 0.0 1020558
04:00+6ю31196100 0.0 1018627
07:00+7ююз41294100 0.0 1017633
10:00+9ююз61178100 0.0 1017652
13:00+10ююз71071100 0.0 1016988
16:00+8ююз41185100 0.0 1016792
19:00+7ю31088100 0.1 1016818
22:00+6ю41088100 0.8 1016639